Regional Weather Roundup
Issued by NWS State College, PA

Home | Current Version | Previous Version | Graphics & Text | Print | Product List | Glossary Off
Versions: 1 2 3 4 5 6 7 8 9 10 11 12 13 14 15 16 17 18 19 20 21 22 23 24 25 26 27 28 29 30 31 32 33 34 35 36 37 38 39 40 41 42 43 44 45 46 47 48 49 50

000
ASUS41 KCTP 050603
RWRCTP

REGIONAL WEATHER ROUNDUP
NATIONAL WEATHER SERVICE STATE COLLEGE PA
200 AM EDT TUE MAY 05 2015

Note: "fair" indicates few or no clouds below 12,000 feet with no
significant weather and/or obstructions to visibility.

* = STATION THAT DOES NOT REPORT PRECIPITATION /E.G. RAIN...SNOW...ETC/
    THUNDER OR FOG.

PAZ002>004-007>009-013>016-020>023-029>032-050700-
WESTERN PENNSYLVANIA

CITY           SKY/WX    TMP DP  RH WIND       PRES   REMARKS
ERIE           MOCLDY    56  53  90 CALM      30.21R
MEADVILLE      PTCLDY    59  56  89 S3        30.22S FOG
FRANKLIN*      MOCLDY    59  54  82 W5        30.24F
NEW CASTLE     FOG       57  57 100 CALM      30.23S VSB 3/4
BEAVER COUNTY  NOT AVBL
BUTLER*        MOCLDY    59  57  94 CALM      30.25S
PITTSBURGH INT CLOUDY    63  59  87 CALM      30.22F
PITTSBURGH     CLOUDY    64  55  72 SE3       30.22F
INDIANA*       CLOUDY    63  57  82 CALM      30.27F
LATROBE        CLOUDY    64  59  82 CALM      30.26S
WASHINGTON CO* CLOUDY    61  57  88 CALM      30.25S
$$

PAZ004>006-010>012-017>019-024>028-033>037-041-042-045-046-049>053-050700-
CENTRAL PENNSYLVANIA

CITY           SKY/WX    TMP DP  RH WIND       PRES   REMARKS
BRADFORD       CLOUDY    59  55  87 W3        30.23S
DUBOIS         CLOUDY    60  56  86 SW5       30.23S
CLEARFIELD     CLOUDY    63  55  75 W5        30.23S
JOHNSTOWN      MOCLDY    62  52  69 W6        30.25S
ALTOONA        CLOUDY    66  53  63 W5        30.24R
STATE COLLEGE  CLOUDY    67  54  63 SW6       30.21S
WILLIAMSPORT   CLOUDY    68  50  52 W7        30.15S
SELINSGROVE    CLOUDY    65  55  70 CALM      30.17R
FT INDIANTOWN  CLEAR     58  49  73 VRB3      30.17S
CAPITAL CITY   CLEAR     63  50  62 W5        30.17R
HARRISBURG     MOCLDY    65  51  60 CALM      30.17R
YORK           CLEAR     70  51  51 SW6       30.17S
$$

PAZ038>040-043-044-047-048-054-055-060>062-067>071-050700-
EASTERN PENNSYLVANIA

CITY           SKY/WX    TMP DP  RH WIND       PRES   REMARKS
SCRANTON       MOCLDY    71  46  40 VRB5      30.16S
MOUNT POCONO   MOCLDY    63  46  54 W8        30.18F
ALLENTOWN      CLEAR     60  49  66 CALM      30.16F
QUAKERTOWN*    CLEAR     64  50  59 CALM      30.18F
READING        CLEAR     67  50  54 S5        30.16S
LANCASTER      CLEAR     61  50  67 CALM      30.16F
COATESVILLE    CLEAR     64  52  63 S5        30.19F
POTTSTOWN      CLEAR     66  50  56 SW5       30.18F
BLUE BELL      CLEAR     68  50  52 SW7       30.17F
DOYLESTOWN     CLEAR     65  49  56 S6        30.17S
WILLOW GROVE   NOT AVBL
NORTH PHILA    CLEAR     69  46  43 SW8       30.19F
PHILADELPHIA   CLEAR     65  49  56 S8        30.19F
$$


USA.gov is the U.S. government's official web portal to all federal, state and local government web resources and services.